Location: Newark
(44.1667°N, 8.2500°E)
Time: 02:16:15
(UTC+00:00)

Vanguard 2 - Pass Details

Date: 06 December 2019
Orbit: 553 x 2938 km, 32.9° (Epoch: 23 January)

Event Time Altitude Azimuth Distance (km) Brightness Sun altitude
Exits shadow 04:47:10 17° 252° (WSW) 5,150 11.2 -20.8°
Maximum altitude 05:01:08 54° 185° (S) 3,013 10.5 -18.3°
Drops below altitude 10° 05:13:49 10° 113° (ESE) 4,432 12.7 -16.1°
Sets 05:16:51 0° 108° (ESE) 5,148 13.7 -15.6°
